YUZGU 10 (RS4S) (53321 NORAD) Tracking and Keplerian Element Data

This shows tracking and keplerian element data for the satellite.

Feedback or suggestion? Click here.




ElementValue
Catalog53321
NameYUZGU 10 (RS4S)
Epoch Orbit2765
Epoch Day14.21867951
Epoch Year2023
RAAN355.4744
Inclination51.6321
Eccentricity0.0005724
Argument of Perigee81.7556
Mean Anonmoly278.4098
Mean Motion15.89047907
Decay Rate0.00738306
L11 53321U 98067TZ 23014.21867951 .00738306 00000+0 23191-2 0 9997
L22 53321 51.6321 355.4744 0005724 81.7556 278.4098 15.89047907 27654



Live tracking and technical data element details for YUZGU 10 (RS4S) (NORAD 53321). YUZGU 10 (RS4S) can be tracked NOW for your location showing map with azimuth and elevation plus other details from your city location.







IsCatalogInMostPopularTable: catalog: 53321, numindb: 61
Update: records affected: 1



GetName: 53321 YUZGU 10 (RS4S)

Hit Count: updated at: Thu, 23 Jan 2025 16:59:18 GMT